Simultaneous Nadir Overpasses (SNOs) Predictions

Prediction of SNOs between GOES-16 and NOAA-19 Satellite Orbit:

Table of predicted SNOs for the next 14.0 days since TLE Epoch: 11/9/2024
Index Date Time (GOES-16) GOES-16 Lat,Lon NOAA-19 Lat,Lon Distance(km) Time Diff (sec)
1 11/11/2024 14:42:41 -0.03, -75.23 0.52, -77.64 274.82 80
2 11/12/2024 14:27:33 -0.03, -75.24 -0.19, -74.62 71.74 80
3 11/13/2024 14:15:06 -0.03, -75.25 -0.89, -71.59 418.38 80
4 11/15/2024 02:49:15 0.02, -75.25 -0.87, -79.15 445.20 80
5 11/16/2024 02:36:47 0.02, -75.26 -0.16, -76.12 98.40 80
6 11/17/2024 02:21:39 0.02, -75.27 0.49, -73.09 248.58 80
7 11/19/2024 14:43:20 -0.01, -75.32 0.49, -77.63 261.97 80
8 11/20/2024 14:28:11 -0.00, -75.34 -0.20, -74.59 85.87 80
9 11/21/2024 14:15:43 -0.00, -75.36 -0.89, -71.56 433.91 80
